Weather Roundup
Issued by NWS Chicago, IL

Home | Current Version | Previous Version | Text Only | Print | Product List | Glossary Off
Versions: 1 2 3 4 5 6 7 8 9 10 11 12 13 14 15 16 17 18 19 20 21 22 23 24 25 26 27 28 29 30 31 32 33 34 35 36 37 38 39 40 41 42 43 44 45 46 47 48 49 50

000
NZUS59 KLOT 270010
HRRLOT

CHICAGO AREA WEATHER ROUNDUP
NATIONAL WEATHER SERVICE CHICAGO/ROMEOVILLE IL
600 PM CST THU FEB 26 2015

NOTE: "FAIR" INDICATES FEW OR NO CLOUDS BELOW 12,000 FEET WITH NO
SIGNIFICANT WEATHER AND/OR OBSTRUCTIONS TO VISIBILITY.

* THESE STATIONS ARE NOT UNDER NWS QUALITY CONTROL. THEY ALSO MAY NOT
  REPORT WEATHER SUCH AS PRECIPITATION OR FOG.

ILZ005-006-012>014-019>023-270100-
NORTHEAST ILLINOIS

CITY           SKY/WX    TMP DP  RH WIND       PRES   REMARKS
OHARE          PTCLDY    11  -4  51 NW10      30.32R WCI  -3
6HR MIN TEMP:  10; 6HR MAX TEMP:  19; 6HR PCP: TRACE;

MIDWAY         PTCLDY    16   0  49 NW12      30.33R WCI   3
6HR MIN TEMP:  16; 6HR MAX TEMP:  21; 6HR PCP: TRACE;

AURORA         CLEAR      6  -4  63 NW9       30.35R WCI  -8
6HR MIN TEMP:   6; 6HR MAX TEMP:  18;

LANSING*       CLEAR     15   3  60 N5        30.31R WCI   7
JOLIET*        CLEAR     12   0  60 NW7       30.35R WCI   1
WAUKEGAN       CLEAR     10  -6  48 NW5       30.33R WCI   2
6HR MIN TEMP:  10; 6HR MAX TEMP:  17;

DUPAGE AIRPORT CLEAR     10  -2  58 NW10      30.33R WCI  -4
6HR MIN TEMP:  10; 6HR MAX TEMP:  19; 6HR PCP: TRACE;

WHEELING       CLEAR     12  -4  48 NW10      30.35R WCI  -1
6HR MIN TEMP:  12; 6HR MAX TEMP:  19; 6HR PCP: TRACE;

KANKAKEE*      MOCLDY    16   3  58 NW7       30.33R WCI   6
MORRIS*        CLEAR      9   0  67 NW7       30.35R WCI  -2
LEWIS AIRPORT* CLEAR     11  -1  57 NW7       30.34R WCI   1
NORTHERLY IS     N/A     14   2  58 N9          N/A  WCI   2
$$

WIZ051-052-058>065-066-070>072-270100-
SOUTHEAST WISCONSIN

CITY           SKY/WX    TMP DP  RH WIND       PRES   REMARKS
MILWAUKEE      PTCLDY    11  -6  46 NW9       30.34R WCI  -2
6HR MIN TEMP:  10; 6HR MAX TEMP:  17;

KENOSHA*       CLEAR     10  -5  50 NW7       30.33R WCI  -1
RACINE*        PTCLDY    11  -4  51 NW8       30.35R WCI  -1
BURLINGTON     CLEAR      7  -8  51 N5        30.34R WCI  -2
WAUKESHA       CLEAR      7  -8  51 N7        30.34R WCI  -5
WEST BEND      CLEAR      9  -6  52 NW3       30.33R
$$

INZ001>003-010>013-019-020-270100-
NORTHWEST INDIANA

CITY           SKY/WX    TMP DP  RH WIND       PRES   REMARKS
GARY*          MOCLDY    18   3  53 NW12G23   30.32R WCI   5
MICHIGAN CITY* NOT AVBL
RENSSELAER*    NOT AVBL
VALPARAISO     FLURRIES  14   6  70 N5        30.29R WCI   6
$$

LMZ740>746-270100-
SOUTHERN LAKE MICHIGAN

STATION/POSITION TIME  SKY/WX   TEMP WIND        PRES    VSBY
                                AIR  DIR/SP/G
                 (UTC)          (F)  (DEG/KT/KT) (MB)    (MI)
HARRISON CRIB    0000            16  320/ 14/ 16   N/A
BURNHAM HARBOR   0000            15  340/  5/ 14   N/A
CALUMET HARBOR   0000            15  320/  6/ 10 1025.3R
BURNS HARBOR     NOT AVBL
MICHIGAN CITY    0000            16  360/ 14/ 17   N/A
$$

ABBREVIATIONS USED IN REMARKS
   TC - TEMPERATURE IN CELSIUS
  WCI - WIND CHILL INDEX
   HX - HEAT INDEX
  VSB - VISIBILITY
$$


USA.gov is the U.S. government's official web portal to all federal, state and local government web resources and services.